VCP492S RKSI-RKPC

Flight info

Callsign VCP492S
Flight time 0h 56m
Altitude 34000
Route BOPTA3H BOPTA Z51 BEDES Y711 DOTOL DOTOL2P
Aircraft A320/M-SDE3FGHIRWY/LB1

Departure

Time 2026-05-05 08:33
Airport Incheon International Airport (RKSI)

Arrival

Time 2026-05-05 09:30
Airport Jeju International Airport (RKPC)
Time Latitude Longitude Altitude Speed Heading
2026-05-05 07:59 37.45631 126.44678 23 ft 0 kts 325°
2026-05-05 07:59 37.45631 126.44679 23 ft 0 kts 325°
2026-05-05 08:18 37.45624 126.44685 23 ft 4 kts 324°
2026-05-05 08:18 37.45602 126.44705 24 ft 4 kts 324°
2026-05-05 08:18 37.45585 126.44720 22 ft 4 kts 321°
2026-05-05 08:19 37.45567 126.44738 22 ft 4 kts 295°
2026-05-05 08:19 37.45566 126.44767 24 ft 4 kts 244°
2026-05-05 08:19 37.45579 126.44794 24 ft 4 kts 235°
2026-05-05 08:19 37.45592 126.44818 24 ft 1 kts 236°
2026-05-05 08:22 37.45591 126.44816 24 ft 1 kts 236°
2026-05-05 08:22 37.45582 126.44799 23 ft 4 kts 237°
2026-05-05 08:22 37.45559 126.44766 23 ft 6 kts 213°
2026-05-05 08:23 37.45512 126.44773 23 ft 8 kts 152°
2026-05-05 08:23 37.45458 126.44744 23 ft 11 kts 232°
2026-05-05 08:23 37.45410 126.44657 22 ft 13 kts 234°
2026-05-05 08:23 37.45352 126.44550 22 ft 16 kts 237°
2026-05-05 08:24 37.45284 126.44424 22 ft 19 kts 233°
2026-05-05 08:24 37.45203 126.44283 22 ft 21 kts 236°
2026-05-05 08:24 37.45114 126.44142 22 ft 21 kts 231°
2026-05-05 08:24 37.45047 126.44000 22 ft 15 kts 269°
2026-05-05 08:25 37.45125 126.43898 22 ft 18 kts 325°
2026-05-05 08:25 37.45239 126.43804 22 ft 21 kts 326°
2026-05-05 08:25 37.45363 126.43689 22 ft 22 kts 322°
2026-05-05 08:25 37.45489 126.43571 24 ft 23 kts 324°
2026-05-05 08:26 37.45624 126.43459 23 ft 23 kts 328°
2026-05-05 08:26 37.45755 126.43338 23 ft 24 kts 323°
2026-05-05 08:26 37.45891 126.43217 25 ft 24 kts 324°
2026-05-05 08:26 37.46030 126.43093 23 ft 25 kts 323°
2026-05-05 08:27 37.46171 126.42966 23 ft 25 kts 325°
2026-05-05 08:27 37.46316 126.42837 23 ft 26 kts 324°
2026-05-05 08:27 37.46466 126.42702 25 ft 27 kts 324°
2026-05-05 08:27 37.46621 126.42563 23 ft 27 kts 324°
2026-05-05 08:28 37.46753 126.42447 25 ft 21 kts 324°
2026-05-05 08:28 37.46842 126.42368 25 ft 14 kts 324°
2026-05-05 08:28 37.46927 126.42292 25 ft 14 kts 324°
2026-05-05 08:28 37.47007 126.42220 23 ft 15 kts 324°
2026-05-05 08:29 37.47101 126.42136 25 ft 18 kts 325°
2026-05-05 08:29 37.47204 126.42044 24 ft 17 kts 323°
2026-05-05 08:29 37.47289 126.41966 26 ft 16 kts 323°
2026-05-05 08:30 37.47410 126.41809 26 ft 10 kts 236°
2026-05-05 08:30 37.47367 126.41735 24 ft 9 kts 234°
2026-05-05 08:30 37.47344 126.41694 24 ft 0 kts 234°
2026-05-05 08:31 37.47343 126.41692 24 ft 1 kts 234°
2026-05-05 08:31 37.47333 126.41676 24 ft 3 kts 234°
2026-05-05 08:31 37.47313 126.41640 24 ft 7 kts 235°
2026-05-05 08:32 37.47283 126.41586 25 ft 7 kts 235°
2026-05-05 08:32 37.47258 126.41575 27 ft 5 kts 146°
2026-05-05 08:32 37.47238 126.41596 27 ft 7 kts 143°
2026-05-05 08:32 37.47112 126.41707 28 ft 51 kts 145°
2026-05-05 08:33 37.46638 126.42128 28 ft 112 kts 144°
2026-05-05 08:33 37.45573 126.43069 40 ft 167 kts 149°
2026-05-05 08:33 37.44942 126.43612 474 ft 160 kts 149°
2026-05-05 08:33 37.43996 126.44355 1147 ft 160 kts 154°
2026-05-05 08:34 37.43040 126.45069 1797 ft 161 kts 156°
2026-05-05 08:34 37.42027 126.45821 2132 ft 180 kts 155°
2026-05-05 08:34 37.40876 126.46680 2392 ft 204 kts 155°
2026-05-05 08:34 37.39587 126.47657 2779 ft 229 kts 153°
2026-05-05 08:35 37.38107 126.48602 3232 ft 245 kts 167°
2026-05-05 08:35 37.36451 126.49155 3968 ft 253 kts 168°
2026-05-05 08:35 37.34724 126.49727 4802 ft 260 kts 168°
2026-05-05 08:35 37.32956 126.50319 5591 ft 266 kts 168°
2026-05-05 08:36 37.31150 126.50931 6451 ft 270 kts 167°
2026-05-05 08:36 37.29323 126.51553 7248 ft 274 kts 167°
2026-05-05 08:36 37.27495 126.52344 8004 ft 282 kts 156°
2026-05-05 08:36 37.25757 126.53518 8800 ft 285 kts 154°
2026-05-05 08:37 37.24001 126.54711 9612 ft 288 kts 154°
2026-05-05 08:37 37.22218 126.55918 10323 ft 295 kts 154°
2026-05-05 08:37 37.20342 126.57182 10549 ft 318 kts 154°
2026-05-05 08:37 37.18320 126.58546 10689 ft 341 kts 153°
2026-05-05 08:38 37.16163 126.60003 10839 ft 362 kts 153°
2026-05-05 08:38 37.13853 126.61382 11265 ft 370 kts 161°
2026-05-05 08:38 37.11367 126.62237 11870 ft 372 kts 171°
2026-05-05 08:38 37.08817 126.62503 12487 ft 375 kts 181°
2026-05-05 08:39 37.06190 126.62456 13105 ft 378 kts 181°
2026-05-05 08:39 37.03550 126.62413 13716 ft 381 kts 181°
2026-05-05 08:39 37.00884 126.62376 14274 ft 384 kts 181°
2026-05-05 08:39 36.98199 126.62343 14787 ft 388 kts 180°
2026-05-05 08:40 36.95484 126.62336 15286 ft 392 kts 180°
2026-05-05 08:40 36.92735 126.62363 15776 ft 396 kts 179°
2026-05-05 08:40 36.89971 126.62411 16291 ft 399 kts 179°
2026-05-05 08:40 36.87173 126.62441 16802 ft 403 kts 180°
2026-05-05 08:41 36.84363 126.62364 17330 ft 406 kts 181°
2026-05-05 08:41 36.81526 126.62206 17856 ft 410 kts 182°
2026-05-05 08:41 36.78662 126.62001 18362 ft 414 kts 183°
2026-05-05 08:41 36.75781 126.61798 18822 ft 417 kts 181°
2026-05-05 08:42 36.72879 126.61982 19280 ft 419 kts 171°
2026-05-05 08:42 36.70028 126.62770 19753 ft 421 kts 164°
2026-05-05 08:42 36.67200 126.63732 20229 ft 424 kts 164°
2026-05-05 08:42 36.64379 126.64692 20687 ft 426 kts 164°
2026-05-05 08:43 36.61505 126.65668 21134 ft 429 kts 165°
2026-05-05 08:43 36.58611 126.66645 21581 ft 431 kts 165°
2026-05-05 08:43 36.55715 126.67615 21985 ft 434 kts 165°
2026-05-05 08:43 36.52790 126.68592 22388 ft 436 kts 165°
2026-05-05 08:44 36.49850 126.69572 22779 ft 438 kts 165°
2026-05-05 08:44 36.46886 126.70556 23176 ft 441 kts 165°
2026-05-05 08:44 36.43910 126.71541 23557 ft 443 kts 165°
2026-05-05 08:44 36.40925 126.72532 23888 ft 446 kts 165°
2026-05-05 08:45 36.37910 126.73537 24226 ft 447 kts 166°
2026-05-05 08:45 36.34936 126.74535 24576 ft 449 kts 166°
2026-05-05 08:45 36.31878 126.75567 24914 ft 450 kts 166°
2026-05-05 08:45 36.28885 126.76579 25239 ft 452 kts 166°
2026-05-05 08:46 36.25842 126.77609 25562 ft 454 kts 166°
2026-05-05 08:46 36.22781 126.78645 25900 ft 455 kts 166°
2026-05-05 08:46 36.19722 126.79680 26354 ft 454 kts 166°
2026-05-05 08:46 36.16663 126.80582 26802 ft 452 kts 173°
2026-05-05 08:47 36.13544 126.80926 27276 ft 448 kts 182°
2026-05-05 08:47 36.10449 126.80711 27751 ft 444 kts 187°
2026-05-05 08:47 36.07369 126.80364 28240 ft 443 kts 187°
2026-05-05 08:47 36.04308 126.80028 28731 ft 442 kts 187°
2026-05-05 08:48 36.01249 126.79702 29224 ft 440 kts 187°
2026-05-05 08:48 35.98195 126.79378 29713 ft 439 kts 187°
2026-05-05 08:48 35.95154 126.79054 30220 ft 437 kts 188°
2026-05-05 08:48 35.92136 126.78728 30659 ft 435 kts 188°
2026-05-05 08:49 35.89116 126.78399 31064 ft 435 kts 188°
2026-05-05 08:49 35.86105 126.78072 31462 ft 434 kts 188°
2026-05-05 08:49 35.83099 126.77748 31854 ft 434 kts 188°
2026-05-05 08:49 35.80089 126.77423 32255 ft 433 kts 188°
2026-05-05 08:50 35.77096 126.77100 32642 ft 432 kts 189°
2026-05-05 08:50 35.74132 126.76781 33056 ft 432 kts 189°
2026-05-05 08:50 35.71146 126.76460 33472 ft 431 kts 189°
2026-05-05 08:50 35.68166 126.76137 33878 ft 430 kts 189°
2026-05-05 08:51 35.65179 126.75810 34066 ft 431 kts 189°
2026-05-05 08:51 35.59094 126.75140 34076 ft 444 kts 189°
2026-05-05 08:52 35.52921 126.74477 34092 ft 446 kts 189°
2026-05-05 08:52 35.46731 126.73824 34092 ft 447 kts 189°
2026-05-05 08:53 35.40540 126.73166 34095 ft 447 kts 189°
2026-05-05 08:53 35.34341 126.72499 34099 ft 446 kts 189°
2026-05-05 08:54 35.28185 126.71840 34101 ft 446 kts 189°
2026-05-05 08:54 35.21999 126.71182 34105 ft 446 kts 189°
2026-05-05 08:55 35.15816 126.70522 34105 ft 445 kts 189°
2026-05-05 08:55 35.09636 126.69876 34112 ft 444 kts 189°
2026-05-05 08:56 35.03478 126.69228 34120 ft 443 kts 189°
2026-05-05 08:56 34.97369 126.68579 34120 ft 443 kts 189°
2026-05-05 08:57 34.91244 126.67921 33907 ft 438 kts 189°
2026-05-05 08:57 34.88182 126.67592 32767 ft 446 kts 189°
2026-05-05 08:57 34.85063 126.67258 31712 ft 453 kts 189°
2026-05-05 08:57 34.81899 126.66922 30688 ft 459 kts 189°
2026-05-05 08:58 34.78708 126.66587 29757 ft 461 kts 188°
2026-05-05 08:58 34.75501 126.66253 28643 ft 464 kts 188°
2026-05-05 08:58 34.72272 126.65917 27525 ft 467 kts 188°
2026-05-05 08:58 34.69022 126.65578 26382 ft 470 kts 188°
2026-05-05 08:59 34.65746 126.65236 25159 ft 474 kts 188°
2026-05-05 08:59 34.62451 126.64886 24067 ft 476 kts 188°
2026-05-05 08:59 34.59211 126.64546 23332 ft 468 kts 188°
2026-05-05 08:59 34.55989 126.64216 22440 ft 462 kts 188°
2026-05-05 09:00 34.52796 126.63887 21502 ft 457 kts 187°
2026-05-05 09:00 34.49644 126.63562 20582 ft 453 kts 187°
2026-05-05 09:00 34.46524 126.63236 19713 ft 449 kts 187°
2026-05-05 09:00 34.43418 126.62908 18875 ft 446 kts 187°
2026-05-05 09:01 34.40334 126.62582 17985 ft 442 kts 187°
2026-05-05 09:01 34.37286 126.62259 17083 ft 438 kts 186°
2026-05-05 09:01 34.34273 126.61941 16242 ft 432 kts 186°
2026-05-05 09:01 34.31291 126.61630 15436 ft 427 kts 186°
2026-05-05 09:02 34.28351 126.61322 14675 ft 421 kts 186°
2026-05-05 09:02 34.25446 126.61022 13948 ft 416 kts 186°
2026-05-05 09:02 34.22580 126.60723 13169 ft 411 kts 186°
2026-05-05 09:02 34.19745 126.60425 12448 ft 407 kts 186°
2026-05-05 09:03 34.16961 126.60132 12167 ft 394 kts 186°
2026-05-05 09:03 34.14295 126.59857 12005 ft 375 kts 186°
2026-05-05 09:03 34.11784 126.59597 11877 ft 358 kts 186°
2026-05-05 09:03 34.09356 126.59347 11754 ft 342 kts 186°
2026-05-05 09:04 34.07032 126.59109 11630 ft 328 kts 186°
2026-05-05 09:04 34.04796 126.58879 11506 ft 317 kts 186°
2026-05-05 09:04 34.02637 126.58656 11383 ft 306 kts 186°
2026-05-05 09:04 34.00582 126.58218 11190 ft 297 kts 199°
2026-05-05 09:05 33.98702 126.57249 10881 ft 292 kts 211°
2026-05-05 09:05 33.97060 126.55830 10547 ft 290 kts 220°
2026-05-05 09:05 33.95491 126.54291 10205 ft 289 kts 220°
2026-05-05 09:05 33.93928 126.52776 9827 ft 289 kts 219°
2026-05-05 09:06 33.92384 126.51283 9526 ft 286 kts 219°
2026-05-05 09:06 33.90819 126.49769 9145 ft 286 kts 220°
2026-05-05 09:06 33.89274 126.48275 8786 ft 286 kts 220°
2026-05-05 09:06 33.87735 126.46783 8485 ft 282 kts 220°
2026-05-05 09:07 33.86214 126.45309 8205 ft 279 kts 220°
2026-05-05 09:07 33.84717 126.43862 8058 ft 271 kts 220°
2026-05-05 09:07 33.83264 126.42463 7943 ft 263 kts 220°
2026-05-05 09:07 33.81858 126.41107 7800 ft 255 kts 220°
2026-05-05 09:08 33.80496 126.39792 7684 ft 247 kts 220°
2026-05-05 09:08 33.79185 126.38525 7486 ft 243 kts 220°
2026-05-05 09:08 33.77867 126.37253 7225 ft 242 kts 220°
2026-05-05 09:08 33.76566 126.35997 7051 ft 240 kts 220°
2026-05-05 09:09 33.75256 126.34731 7017 ft 246 kts 220°
2026-05-05 09:09 33.73903 126.33423 7017 ft 252 kts 220°
2026-05-05 09:09 33.72534 126.32105 7016 ft 252 kts 220°
2026-05-05 09:09 33.71165 126.30782 7016 ft 253 kts 220°
2026-05-05 09:10 33.69797 126.29455 7017 ft 253 kts 220°
2026-05-05 09:10 33.68433 126.28131 7017 ft 253 kts 220°
2026-05-05 09:10 33.67066 126.26802 7014 ft 252 kts 220°
2026-05-05 09:10 33.65722 126.25452 7010 ft 251 kts 227°
2026-05-05 09:11 33.64835 126.23693 7011 ft 246 kts 255°
2026-05-05 09:11 33.64715 126.21665 7010 ft 247 kts 280°
2026-05-05 09:11 33.65374 126.19779 7013 ft 248 kts 306°
2026-05-05 09:11 33.66670 126.18464 7013 ft 251 kts 333°
2026-05-05 09:12 33.68374 126.17997 7016 ft 255 kts
2026-05-05 09:12 33.70084 126.18549 7012 ft 260 kts 28°
2026-05-05 09:12 33.71394 126.20037 7019 ft 263 kts 58°
2026-05-05 09:12 33.71947 126.22117 7016 ft 265 kts 88°
2026-05-05 09:13 33.71635 126.24285 7015 ft 265 kts 109°
2026-05-05 09:13 33.71004 126.26370 7019 ft 274 kts 107°
2026-05-05 09:13 33.70885 126.28684 7017 ft 283 kts 79°
2026-05-05 09:13 33.71613 126.30840 7009 ft 274 kts 54°
2026-05-05 09:14 33.72907 126.32410 7011 ft 258 kts 32°
2026-05-05 09:14 33.74504 126.33259 7014 ft 248 kts 11°
2026-05-05 09:14 33.76214 126.33369 7017 ft 245 kts 350°
2026-05-05 09:14 33.77824 126.32763 7018 ft 243 kts 329°
2026-05-05 09:15 33.79149 126.31539 7013 ft 241 kts 310°
2026-05-05 09:15 33.80043 126.29851 7016 ft 240 kts 290°
2026-05-05 09:15 33.80404 126.27911 7016 ft 239 kts 271°
2026-05-05 09:15 33.80201 126.25955 7014 ft 239 kts 252°
2026-05-05 09:16 33.79455 126.24172 7020 ft 240 kts 236°
2026-05-05 09:16 33.78514 126.22515 7017 ft 239 kts 237°
2026-05-05 09:16 33.77581 126.20856 7017 ft 240 kts 237°
2026-05-05 09:16 33.76650 126.19193 7016 ft 239 kts 237°
2026-05-05 09:17 33.75728 126.17542 7011 ft 238 kts 237°
2026-05-05 09:17 33.74803 126.15883 7013 ft 239 kts 237°
2026-05-05 09:17 33.73878 126.14230 7013 ft 238 kts 237°
2026-05-05 09:17 33.72973 126.12570 7012 ft 237 kts 242°
2026-05-05 09:18 33.72262 126.10799 7015 ft 235 kts 246°
2026-05-05 09:18 33.71577 126.09011 7015 ft 235 kts 246°
2026-05-05 09:18 33.70887 126.07225 7015 ft 237 kts 246°
2026-05-05 09:18 33.70198 126.05446 7009 ft 238 kts 246°
2026-05-05 09:19 33.69428 126.03658 7008 ft 238 kts 238°
2026-05-05 09:19 33.68399 126.02096 7011 ft 239 kts 229°
2026-05-05 09:19 33.67304 126.00642 7013 ft 237 kts 230°
2026-05-05 09:19 33.66202 125.99169 7013 ft 237 kts 230°
2026-05-05 09:20 33.65101 125.97692 7009 ft 238 kts 229°
2026-05-05 09:20 33.63946 125.96254 7011 ft 239 kts 222°
2026-05-05 09:20 33.62584 125.95112 7009 ft 240 kts 212°
2026-05-05 09:20 33.61633 125.94428 7011 ft 240 kts 213°
2026-05-05 09:21 33.60172 125.93500 7012 ft 234 kts 199°
2026-05-05 09:21 33.58609 125.93293 7009 ft 222 kts 174°
2026-05-05 09:21 33.57140 125.93907 7015 ft 235 kts 149°
2026-05-05 09:21 33.55960 125.95348 7018 ft 251 kts 120°
2026-05-05 09:22 33.55218 125.97231 7016 ft 254 kts 115°
2026-05-05 09:22 33.54494 125.99160 7016 ft 254 kts 115°
2026-05-05 09:22 33.53767 126.01090 7012 ft 255 kts 115°
2026-05-05 09:22 33.53029 126.03031 7016 ft 255 kts 115°
2026-05-05 09:23 33.52292 126.04962 7012 ft 254 kts 115°
2026-05-05 09:23 33.51558 126.06882 7016 ft 254 kts 115°
2026-05-05 09:23 33.50820 126.08810 7014 ft 254 kts 115°
2026-05-05 09:23 33.50083 126.10732 7013 ft 254 kts 116°
2026-05-05 09:24 33.49341 126.12659 7015 ft 253 kts 115°
2026-05-05 09:24 33.48603 126.14577 7015 ft 254 kts 116°
2026-05-05 09:24 33.47863 126.16501 7013 ft 256 kts 115°
2026-05-05 09:24 33.47118 126.18440 6934 ft 255 kts 116°
2026-05-05 09:25 33.46388 126.20341 6759 ft 249 kts 115°
2026-05-05 09:25 33.45659 126.22236 6444 ft 250 kts 116°
2026-05-05 09:25 33.44897 126.24047 6305 ft 236 kts 119°
2026-05-05 09:25 33.44139 126.25731 6083 ft 225 kts 120°
2026-05-05 09:26 33.43392 126.27353 5728 ft 221 kts 120°
2026-05-05 09:26 33.42653 126.28964 5341 ft 220 kts 117°
2026-05-05 09:26 33.42277 126.30707 4948 ft 221 kts 89°
2026-05-05 09:26 33.42601 126.32453 4710 ft 209 kts 61°
2026-05-05 09:27 33.43310 126.33862 4600 ft 186 kts 57°
2026-05-05 09:27 33.43957 126.35116 4374 ft 171 kts 57°
2026-05-05 09:27 33.44571 126.36311 4033 ft 166 kts 58°
2026-05-05 09:27 33.45170 126.37481 3603 ft 168 kts 58°
2026-05-05 09:28 33.45791 126.38712 3116 ft 175 kts 60°
2026-05-05 09:28 33.46375 126.39985 2674 ft 174 kts 64°
2026-05-05 09:28 33.46967 126.41252 2185 ft 175 kts 60°
2026-05-05 09:28 33.47661 126.42461 1520 ft 178 kts 55°
2026-05-05 09:29 33.48399 126.43644 986 ft 173 kts 59°
2026-05-05 09:29 33.48994 126.44850 649 ft 163 kts 63°
2026-05-05 09:29 33.49535 126.45992 386 ft 157 kts 58°
2026-05-05 09:29 33.50109 126.47091 136 ft 150 kts 57°
2026-05-05 09:30 33.50576 126.47982 91 ft 102 kts 58°
2026-05-05 09:30 33.50852 126.48512 86 ft 39 kts 59°
2026-05-05 09:30 33.50886 126.48758 78 ft 25 kts 92°
2026-05-05 09:30 33.50855 126.48870 67 ft 14 kts 166°
2026-05-05 09:31 33.50798 126.48786 73 ft 14 kts 242°
2026-05-05 09:31 33.50746 126.48680 85 ft 15 kts 238°
2026-05-05 09:31 33.50688 126.48570 84 ft 16 kts 237°
2026-05-05 09:31 33.50614 126.48518 84 ft 13 kts 158°
2026-05-05 09:32 33.50537 126.48592 83 ft 16 kts 117°
2026-05-05 09:32 33.50579 126.48720 83 ft 19 kts 58°
2026-05-05 09:32 33.50636 126.48830 72 ft 15 kts 58°
2026-05-05 09:32 33.50678 126.48924 72 ft 8 kts 85°
2026-05-05 09:33 33.50653 126.48959 72 ft 6 kts 153°
2026-05-05 09:33 33.50615 126.48985 70 ft 5 kts 148°
2026-05-05 09:33 33.50612 126.48987 72 ft 0 kts 148°